Location: *
(50.3440°N, 18.6237°E)
Time: 18:32:34
(UTC+00:00)

CENTAUR R/B - Pass Details

Date: 30 November 2020
Orbit: 750 x 1438 km, 63.4° (Epoch: 11 January)

Event Time Altitude Azimuth Distance (km) Brightness Sun altitude
Rises 17:00:41 0° 177° (S) 3,387 5.4 -20.7°
Reaches altitude 10° 17:03:22 10° 165° (SSE) 2,540 4.6 -21.1°
Enters shadow 17:06:27 23° 135° (SE) 1,891 3.7 -21.6°
